Theta_e
292 289 287 289 289 288 290 290 290 294 299 299 299 300 301 305 303 302 303 299 297 303 319 325 327 329 329 328 329 328 328 329 330 328 329 329 328 329 330 331 329 328 328 328
286 284 290 294 291 288 287 285 286 292 297 297 295 297 302 305 305 306 306 301 300 300 301 320 324 327 327 328 329 329 329 329 329 330 328 328 328 329 330 331 331 329 328 328
283 286 291 291 289 286 287 285 285 286 291 293 294 293 296 301 302 307 310 306 302 302 300 311 321 323 324 326 328 328 330 329 330 330 329 328 328 328 329 330 330 329 329 329
285 288 287 287 288 288 283 290 288 287 287 285 293 284 292 299 300 302 306 308 305 302 299 303 317 314 316 318 324 327 330 330 330 330 329 329 329 327 329 329 328 329 329 329
281 285 285 284 288 291 286 290 288 288 287 285 284 285 288 296 297 300 303 305 304 297 296 295 297 303 303 303 307 311 323 322 326 329 331 329 329 331 330 327 327 328 329 330
282 289 287 286 290 290 293 289 287 288 286 280 285 286 282 288 295 300 304 307 299 296 294 295 298 300 302 304 307 309 306 307 308 311 313 320 330 329 325 325 326 328 328 329
279 281 287 289 285 290 288 286 277 277 278 277 285 283 287 290 292 291 298 303 304 297 296 298 298 299 301 301 301 305 305 303 305 306 308 309 311 316 327 328 328 327 327 326
270 268 283 288 285 285 284 286 277 271 274 277 283 280 285 295 290 292 293 295 296 296 297 299 299 300 300 300 300 301 302 301 303 302 302 304 306 314 317 318 320 324 326 326
269 274 287 288 289 288 287 282 288 278 275 277 280 283 287 289 289 291 293 295 295 296 297 297 299 300 301 300 300 300 300 299 299 300 300 300 300 301 302 305 310 311 314 316
279 273 284 288 290 290 287 291 281 280 267 268 277 277 280 283 286 290 292 293 294 296 296 297 297 298 299 299 299 299 299 298 298 299 298 298 298 298 299 300 300 301 303 305
281 277 279 284 285 283 283 283 285 282 277 273 272 276 283 284 289 289 291 293 293 294 294 295 295 295 296 296 296 296 296 295 295 296 297 297 297 298 298 297 297 297 299 300
284 277 274 278 285 288 287 285 285 279 276 276 278 275 286 286 289 291 291 292 291 292 292 291 292 292 292 293 293 292 292 293 293 294 294 294 294 295 295 295 294 294 295 297
285 277 264 273 281 284 282 285 287 286 281 275 272 275 286 289 289 290 290 290 290 290 289 289 288 288 288 288 289 289 289 289 291 292 291 291 291 291 292 292 292 293 292 293
287 277 272 272 275 280 277 280 283 285 278 277 277 278 282 286 286 287 288 289 288 288 288 287 286 286 286 286 286 286 287 287 289 289 289 288 288 288 289 289 289 290 290 290
283 274 277 280 281 280 280 280 281 282 283 279 280 281 284 286 286 287 287 286 287 286 286 286 285 285 285 284 284 284 284 285 286 287 286 285 286 286 286 286 286 287 287 287
282 276 277 274 279 280 278 279 283 285 282 281 283 282 285 285 286 286 286 286 285 285 286 286 285 285 284 284 283 283 282 283 284 283 283 283 283 283 283 283 284 284 284 285
278 276 270 271 276 277 273 277 279 282 284 283 280 285 284 284 287 285 285 286 285 285 285 285 284 284 283 283 282 281 281 282 282 281 281 280 280 280 281 281 282 282 282 282
276 273 269 266 270 266 278 281 283 286 285 286 285 284 287 287 286 286 286 285 285 286 285 285 284 283 283 282 281 280 280 280 280 279 279 279 279 279 280 280 280 280 280 280
279 276 264 264 263 271 275 278 279 280 282 287 285 284 285 285 284 283 285 285 285 285 285 284 284 283 281 280 279 279 279 279 279 278 278 278 278 278 278 278 278 278 279 279
278 276 269 260 262 260 273 278 282 283 276 286 288 285 284 284 282 283 286 285 285 285 285 283 282 281 281 279 279 279 278 277 277 277 277 277 277 277 276 277 277 278 278 280
258 257 263 257 259 267 276 279 281 270 276 285 287 286 285 281 282 284 284 284 284 283 282 281 280 279 279 279 278 277 276 276 277 277 276 276 276 276 276 277 277 277 277 278
265 260 257 256 257 261 276 277 275 279 280 281 281 281 282 282 283 283 283 282 282 281 281 279 278 278 277 278 277 276 275 276 275 274 274 273 273 275 276 275 276 275 275 274
266 272 268 270 270 277 278 278 279 281 281 280 281 280 282 281 281 282 281 281 281 280 280 279 277 276 276 276 276 275 275 275 273 270 268 269 272 274 275 274 274 273 272 272
273 276 271 272 276 277 279 279 280 281 281 281 280 281 281 281 281 281 281 281 281 280 279 278 276 275 275 275 275 274 274 273 269 267 269 270 270 271 272 273 273 272 271 271
275 274 271 271 277 277 279 279 280 280 282 281 281 281 281 281 281 281 281 280 280 279 278 276 276 275 274 273 273 270 272 270 269 269 269 269 269 268 269 271 271 272 274 274
276 275 274 272 277 278 278 280 280 280 281 282 281 280 280 281 281 280 280 279 278 278 275 273 273 272 271 269 269 268 266 267 265 267 267 267 267 267 268 268 269 274 276 278
Wind_Speed
4 8 17 12 11 6 1 5 15 8 7 8 17 13 12 9 6 6 6 3 3 7 14 10 13 13 11 10 11 12 12 10 9 3 6 6 8 5 4 6 9 8 8 9
5 20 12 6 10 8 12 5 5 4 4 6 5 15 13 14 13 11 13 8 8 6 7 11 13 13 14 15 14 12 13 9 8 7 1 3 4 4 5 4 6 8 8 9
17 12 15 12 10 13 17 14 5 2 0 2 3 6 8 8 5 14 19 11 6 8 8 5 12 14 8 12 15 13 12 11 11 8 4 1 0 2 5 6 6 6 8 9
11 13 17 15 18 13 16 12 8 9 2 5 5 7 9 17 13 14 18 16 13 8 1 4 7 7 6 1 3 6 10 11 10 10 8 11 10 10 8 7 4 5 8 9
5 4 15 17 11 13 8 7 13 8 5 2 4 2 5 8 18 19 16 15 7 8 7 7 7 8 9 8 7 5 5 4 2 6 9 8 12 9 6 4 6 7 6 9
9 6 4 3 11 15 6 5 6 4 4 8 14 9 5 7 12 17 15 19 11 13 11 9 7 7 9 7 6 5 7 5 6 4 2 2 8 8 4 5 6 6 4 5
5 15 5 6 4 12 17 7 5 9 8 15 16 7 12 3 3 6 14 18 18 14 14 13 8 8 7 8 7 4 5 7 6 6 6 5 4 5 4 5 5 5 5 5
5 7 14 9 13 4 18 8 4 8 13 12 2 11 9 16 5 3 6 8 9 9 9 10 8 8 11 9 7 7 7 7 6 6 6 5 6 3 3 5 4 3 3 3
1 5 4 12 9 11 5 14 13 3 3 5 6 5 6 5 7 5 8 12 10 9 8 9 7 6 5 13 9 8 7 7 7 7 5 6 5 5 4 4 3 3 4 5
3 6 3 2 6 9 10 7 9 5 6 5 6 4 6 8 8 7 8 11 10 11 11 10 9 9 8 9 10 9 7 6 6 6 6 5 6 5 5 5 6 6 4 5
2 4 2 3 6 12 6 12 7 6 4 6 5 6 1 4 14 14 10 10 11 11 10 9 10 8 9 10 9 7 8 7 7 7 6 6 6 5 5 5 5 6 5 6
3 2 4 8 8 5 4 17 8 6 5 1 2 3 8 6 9 14 14 11 8 10 10 9 10 9 8 9 8 7 7 7 7 5 5 4 6 6 6 6 6 6 7 6
1 2 4 7 3 4 3 2 9 11 2 4 7 5 8 13 12 9 16 12 10 11 10 9 9 7 7 7 8 7 8 7 6 6 7 8 7 7 7 6 6 6 6 6
9 3 5 3 3 4 5 7 14 22 9 4 4 6 4 11 15 9 11 10 9 8 9 7 7 7 6 6 7 7 8 7 7 7 7 7 8 7 6 6 7 7 7 7
5 5 4 3 6 6 12 14 14 22 15 13 12 12 15 14 15 12 11 9 10 8 8 6 6 6 6 6 6 6 6 5 5 6 7 7 6 6 6 7 7 7 6 6
5 4 2 3 6 9 13 14 7 25 8 6 16 11 4 6 8 9 11 10 9 8 7 7 6 6 5 5 5 5 5 5 5 5 5 5 5 6 6 7 7 6 7 6
4 5 4 3 6 8 5 8 11 3 5 11 18 19 11 10 12 11 8 9 10 8 7 7 6 6 5 5 4 4 3 3 5 6 5 6 6 6 6 7 7 7 8 7
5 4 1 3 5 3 3 3 8 10 8 8 15 17 18 14 7 7 5 8 9 8 7 6 5 4 4 3 4 3 5 4 3 4 4 5 6 6 7 7 7 8 5 6
3 2 2 3 2 7 3 5 3 4 4 5 10 12 12 11 8 4 2 3 6 6 6 5 5 3 4 5 5 5 6 7 7 7 8 9 9 9 8 8 8 7 6 7
1 3 3 4 3 5 3 4 3 3 5 4 3 9 13 8 7 5 8 7 7 7 5 6 5 4 4 2 2 3 1 1 2 4 5 5 5 6 7 8 8 6 6 8
3 4 4 1 2 8 8 6 2 6 6 13 12 9 11 4 2 7 9 6 6 6 7 6 5 5 4 3 3 3 2 3 3 4 5 5 5 6 6 6 5 6 7 7
6 6 4 3 2 8 4 1 3 2 2 6 7 5 7 6 7 9 8 7 8 7 5 5 5 3 2 2 3 1 1 2 2 3 4 5 5 5 5 6 7 5 6 7
3 7 5 9 8 5 4 2 2 3 3 4 8 5 8 9 6 8 7 8 7 7 6 5 5 5 4 4 4 3 2 2 2 2 4 5 5 6 5 6 7 6 4 4
5 4 3 4 6 9 6 3 1 3 4 4 3 7 8 8 9 8 7 7 7 7 7 6 7 6 4 3 0 2 3 3 1 4 5 4 4 5 5 5 6 6 5 5
6 6 7 6 8 3 8 7 6 5 4 5 3 6 8 7 5 6 6 7 7 7 5 5 5 4 3 1 2 2 3 1 3 3 4 4 4 5 6 5 6 6 6 7
9 10 10 9 8 7 4 9 10 10 9 10 9 6 5 7 8 6 7 5 6 6 4 4 4 3 4 2 4 3 2 1 2 4 3 3 3 3 4 6 8 9 15 16
Wind_Direction
251 219 216 213 230 296 338 190 213 206 217 185 217 215 224 232 223 210 256 264 274 246 248 223 210 200 191 182 183 186 185 181 169 155 184 199 211 203 193 195 202 197 200 204
263 238 221 219 205 230 254 260 235 248 230 205 204 230 223 224 234 228 232 221 227 270 283 195 197 200 197 192 190 186 190 180 184 190 180 188 193 211 214 197 195 204 204 206
230 245 214 226 215 199 231 227 242 243 25 245 100 246 217 245 229 224 237 223 189 226 277 233 191 193 188 189 193 190 189 188 195 179 146 126 265 204 207 215 218 202 206 213
257 253 260 248 223 204 221 219 229 249 154 227 169 264 217 208 214 222 225 228 221 207 260 40 125 99 106 43 196 190 188 185 196 183 187 210 221 228 228 228 212 197 203 214
225 247 239 224 232 214 221 172 207 219 212 34 249 244 233 200 220 216 218 227 219 129 119 81 52 97 79 52 43 26 103 82 176 191 207 204 221 234 233 206 207 215 220 217
265 165 319 326 222 227 289 251 182 137 148 239 213 210 233 199 209 220 218 219 170 144 130 107 105 76 72 67 63 45 76 63 45 58 55 297 242 241 231 222 222 218 239 240
272 239 193 193 248 202 225 203 174 189 195 229 166 200 229 209 252 235 214 212 194 160 146 131 122 107 81 62 67 99 95 66 45 50 44 20 348 312 264 257 248 246 231 222
194 297 174 165 210 249 200 221 199 178 198 210 133 222 223 235 91 15 77 115 105 109 116 114 135 119 113 91 66 41 56 73 50 43 39 36 23 16 20 14 355 345 312 304
327 257 312 190 182 180 189 214 227 353 15 142 194 277 297 125 127 69 74 92 92 90 92 101 94 87 113 91 76 56 38 51 53 50 51 39 31 31 11 5 17 8 359 345
251 289 187 234 218 231 218 147 199 214 155 194 205 205 210 168 166 132 106 104 97 96 90 85 80 72 63 70 74 77 58 52 53 41 36 37 32 32 30 33 26 12 2 2
218 196 275 11 238 193 188 229 213 174 185 162 131 239 112 253 169 146 132 118 115 106 95 89 83 74 68 63 60 58 56 45 37 36 34 32 16 13 32 36 21 10 2 7
200 229 237 223 211 212 206 229 186 197 199 196 137 246 327 206 139 133 123 112 98 94 92 84 76 70 67 74 70 54 48 40 36 34 40 34 36 11 18 23 12 1 1 4
270 244 341 332 88 1 249 209 232 211 149 219 131 258 351 115 118 119 122 114 107 99 89 82 74 72 61 60 58 47 42 23 23 32 36 29 21 17 11 10 355 358 352 354
295 228 193 218 280 244 247 263 261 201 198 155 158 136 126 139 129 115 113 107 104 102 103 95 81 78 67 61 55 44 39 19 13 28 35 31 16 12 3 357 1 357 351 353
333 247 201 233 287 291 281 270 265 198 188 187 167 147 168 157 142 136 127 118 113 109 102 104 99 85 76 69 58 44 39 23 14 38 34 17 2 1 2 5 358 350 354 342
327 306 52 319 298 285 289 300 303 185 134 100 143 139 132 120 105 125 135 130 123 124 125 123 113 106 91 80 60 44 24 22 29 49 34 359 1 1 2 354 348 349 345 345
311 336 14 288 310 304 300 348 310 126 93 142 155 166 145 138 142 149 141 139 144 151 149 140 131 120 110 105 94 65 29 21 39 37 13 3 355 349 347 339 347 347 341 338
298 330 23 258 335 344 275 346 298 102 64 103 122 149 152 145 127 125 145 148 153 152 146 140 128 118 99 93 57 46 33 29 43 38 20 6 360 354 349 349 351 345 337 339
241 305 336 107 214 300 333 330 347 36 48 17 112 120 115 113 84 44 124 112 148 143 140 138 133 116 92 59 35 30 19 11 14 7 7 3 358 347 344 340 332 321 321 327
57 34 116 22 105 195 252 279 325 130 30 242 109 137 146 141 149 198 166 143 131 129 127 119 100 76 96 71 58 68 56 10 24 359 347 340 335 325 322 320 326 325 329 322
12 5 154 135 271 289 248 272 281 87 213 166 191 173 173 182 193 137 135 129 137 148 147 131 121 134 142 146 136 96 52 25 350 348 332 322 317 311 297 304 304 304 307 304
174 142 193 89 71 284 205 56 165 212 52 153 137 149 120 121 106 121 138 148 157 150 132 129 129 138 119 98 91 82 282 251 289 299 300 300 298 296 294 286 289 283 287 293
265 190 188 189 212 236 242 215 264 136 145 150 121 137 135 131 143 152 167 177 181 171 161 156 159 161 169 172 174 205 259 265 254 255 285 282 279 286 289 295 295 296 280 285
258 182 211 53 277 240 257 217 239 177 175 110 124 151 160 150 164 177 178 177 174 179 184 174 168 174 195 190 143 263 305 337 311 281 288 287 294 309 293 288 294 294 297 298
204 140 189 265 265 319 262 228 213 238 136 169 166 179 176 157 194 193 198 196 201 196 182 183 193 179 205 163 304 294 322 341 314 297 300 298 297 298 304 294 288 285 275 266
184 204 195 211 215 178 226 217 192 198 198 201 177 197 202 184 202 194 222 209 192 204 175 173 186 188 234 207 253 270 274 251 260 293 283 265 280 281 289 300 305 292 293 297